Weather History for Pecs, Hungary

Change the Weather History Date:

Thursday, November 22, 2012

  Actual Average Record
Temperature  
Mean Temperature 45 °F -  
Max Temperature 46 °F 41 °F - ()
Min Temperature 44 °F 31 °F - ()
Degree Days  
Heating Degree Days 20    
Moisture  
Dew Point 44 °F    
Average Humidity 95    
Maximum Humidity 100    
Minimum Humidity 92    
Precipitation  
Precipitation 0.01 in 0.06 in - ()
Sea Level Pressure  
Sea Level Pressure 30.28 in    
Wind  
Wind Speed 2 mph ()    
Max Wind Speed 5 mph    
Max Gust Speed -    
Visibility 1.9 miles    
Events Rain    
T = Trace of Precipitation, MM = Missing Value Source: Averaged Metar Reports

Daily Weather History Graph

Daily Weather History Graph

Search for Another Location

Airport:

Trip Planner

Search our weather history database for the weather conditions in past years. The results will help you decide how hot, cold, wet, or windy it might be!

Date:

Astronomy

Nov. 22, 2012 Rise Set
Actual Time 6:57 AM CET 4:08 PM CET
Civil Twilight 6:24 AM CET 4:41 PM CET
Nautical Twilight 5:47 AM CET 5:18 PM CET
Astronomical Twilight 5:11 AM CET 5:54 PM CET
Moon 1:01 PM CET (11/22) 12:41 AM CET (11/22)
Length of Visible Light 10h 17m
Length of Day
9h 11m
Waxing Gibbous, 69% of the Moon is Illuminated
Nov 22
Waxing Gibbous
Nov 28
Full
Dec 6
Last Quarter
Dec 13
New
Dec 20
First Quarter

Hourly Weather History & Observations

Time (CET) Temp. Windchill Dew Point Humidity Pressure Visibility Wind Dir Wind Speed Gust Speed Precip Events Conditions
12:45 AM 44.6 °F 42.2 °F 42.8 °F 93% 30.21 in 6.2 mi East 4.6 mph - N/A   Overcast
1:00 AM 45 °F - 43 °F 92% 30.24 in 6 mi East 4.5 mph - -   Partly Cloudy
1:45 AM 44.6 °F 43.1 °F 42.8 °F 93% 30.21 in 6.2 mi East 3.5 mph - N/A   Overcast
2:45 AM 44.6 °F 43.1 °F 42.8 °F 93% 30.24 in 6.2 mi East 3.5 mph - N/A   Overcast
3:45 AM 44.6 °F - 42.8 °F 93% 30.24 in 5.0 mi Calm Calm - N/A   Overcast
4:45 AM 44.6 °F - 42.8 °F 93% 30.24 in 5.0 mi Calm Calm - N/A   Overcast
5:15 AM 44.6 °F - 42.8 °F 93% 30.24 in 5.0 mi Calm Calm - N/A   Overcast
5:45 AM 44.6 °F - 42.8 °F 93% 30.24 in 5.0 mi NNE 1.2 mph - N/A   Overcast
6:00 AM - - - N/A% - 4.3 mi Variable 3.5 mph - N/A   Mostly Cloudy
6:15 AM 44.6 °F - 42.8 °F 93% 30.24 in 5.0 mi East 2.3 mph - N/A   Overcast
6:33 AM 44.6 °F - 42.8 °F 93% 30.27 in 2.5 mi Calm Calm - N/A   Overcast
6:45 AM 44.6 °F - 42.8 °F 93% 30.27 in 2.5 mi Calm Calm - N/A   Overcast
7:00 AM 44 °F - 43 °F 95% 30.28 in 2 mi Calm Calm - -   Mist
7:15 AM 44.6 °F - 42.8 °F 93% 30.27 in 1.9 mi SE 2.3 mph - N/A   Overcast
7:45 AM 44.6 °F - 42.8 °F 93% 30.27 in 1.9 mi SSE 1.2 mph - N/A   Overcast
8:10 AM 44.6 °F - 42.8 °F 93% 30.30 in 1.2 mi SE 2.3 mph - N/A   Overcast
8:15 AM 44.6 °F - 42.8 °F 93% 30.27 in 1.2 mi SE 2.3 mph - N/A   Overcast
8:45 AM 44.6 °F - 42.8 °F 93% 30.30 in 1.2 mi Calm Calm - N/A   Overcast
9:00 AM - - - N/A% - 2.2 mi Variable 3.5 mph - N/A   Mostly Cloudy
9:15 AM 44.6 °F - 42.8 °F 93% 30.30 in 1.2 mi Calm Calm - N/A   Overcast
9:45 AM 44.6 °F - 44.6 °F 100% 30.30 in 1.2 mi ESE 1.2 mph - N/A   Overcast
10:15 AM 46.4 °F - 44.6 °F 93% 30.30 in 1.6 mi Calm Calm - N/A   Overcast
10:45 AM 46.4 °F - 44.6 °F 93% 30.30 in 1.6 mi Calm Calm - N/A   Overcast
11:15 AM 46.4 °F - 44.6 °F 93% 30.30 in 1.6 mi SSW 1.2 mph - N/A   Overcast
11:45 AM 46.4 °F - 44.6 °F 93% 30.30 in 1.2 mi South 2.3 mph - N/A   Overcast
12:00 PM - - - N/A% - 2.2 mi Variable 3.5 mph - N/A   Mostly Cloudy
12:15 PM 46.4 °F - 44.6 °F 93% 30.30 in 1.2 mi Calm Calm - N/A   Overcast
12:45 PM 46.4 °F - 44.6 °F 93% 30.30 in 0.9 mi South 2.3 mph - N/A   Overcast
1:00 PM 46 °F - 45 °F 94% 30.30 in 1 mi South 2.2 mph - -   Mist
1:15 PM 46.4 °F - 44.6 °F 93% 30.27 in 0.9 mi Calm Calm - N/A   Overcast
1:45 PM 46.4 °F - 44.6 °F 93% 30.27 in 0.9 mi SSE 2.3 mph - N/A   Overcast
2:15 PM 46.4 °F - 44.6 °F 93% 30.27 in 0.9 mi SSE 2.3 mph - N/A   Overcast
2:45 PM 46.4 °F 45.2 °F 44.6 °F 93% 30.27 in 0.9 mi SSE 3.5 mph - N/A   Overcast
3:00 PM - - - N/A% - 1.2 mi Variable 3.5 mph - N/A   Overcast
3:15 PM 46.4 °F - 44.6 °F 93% 30.27 in 0.9 mi SE 2.3 mph - N/A   Overcast
3:45 PM 46.4 °F - 44.6 °F 93% 30.27 in 0.9 mi SSE 2.3 mph - N/A   Light Drizzle
4:15 PM 46.4 °F 45.2 °F 44.6 °F 93% 30.30 in 0.9 mi SE 3.5 mph - N/A   Light Drizzle
4:45 PM 44.6 °F 43.1 °F 44.6 °F 100% 30.30 in 0.9 mi SE 3.5 mph - N/A   Light Drizzle
5:15 PM 44.6 °F - 44.6 °F 100% 30.30 in 0.9 mi SSE 2.3 mph - N/A   Light Drizzle
5:45 PM 44.6 °F - 44.6 °F 100% 30.30 in 0.9 mi SSE 2.3 mph - N/A   Light Drizzle
6:15 PM 44.6 °F - 44.6 °F 100% 30.30 in 0.9 mi East 2.3 mph - N/A   Overcast
6:45 PM 44.6 °F - 44.6 °F 100% 30.30 in 0.9 mi East 2.3 mph - N/A   Overcast
7:00 PM 45 °F - 44 °F 94% 30.31 in 1 mi East 2.2 mph - - Rain Light Drizzle
7:15 PM 44.6 °F - 44.6 °F 100% 30.30 in 0.9 mi East 2.3 mph - N/A   Overcast
7:29 PM 44.6 °F - 44.6 °F 100% 30.30 in 0.1 mi SE 2.3 mph - N/A   Light Drizzle
7:45 PM 44.6 °F - 44.6 °F 100% 30.30 in 0.1 mi ESE 2.3 mph - N/A   Light Drizzle
8:15 PM 44.6 °F 43.1 °F 44.6 °F 100% 30.30 in 0.1 mi ESE 3.5 mph - N/A   Light Drizzle
8:45 PM 44.6 °F - 44.6 °F 100% 30.30 in 0.1 mi ESE 2.3 mph - N/A   Light Drizzle
9:45 PM 44.6 °F - 44.6 °F 100% 30.27 in 0.1 mi Calm Calm - N/A   Light Drizzle
10:45 PM 44.6 °F - 44.6 °F 100% 30.27 in 0.1 mi East 1.2 mph - N/A   Light Drizzle
11:45 PM 44.6 °F - 44.6 °F 100% 30.27 in 0.1 mi ESE 2.3 mph - N/A   Light Drizzle